Regional Weather Roundup
Issued by NWS

Home | Current Version | Previous Version | Text Only | Print | Product List | Glossary Off
Versions: 1 2 3 4 5 6 7 8 9 10 11 12 13 14 15 16 17 18 19 20 21 22 23 24 25 26 27 28 29 30 31 32 33 34 35 36 37 38 39 40 41 42 43 44 45 46 47 48 49 50

000
ASUS45 KPSR 222100
RWRAZ

ARIZONA HOURLY REGIONAL WEATHER ROUNDUP
NATIONAL WEATHER SERVICE PHOENIX AZ
200 PM MST FRI MAY 22 2015

NOTE: FAIR INDICATES FEW OR NO CLOUDS BELOW 12,000 FEET WITH NO
SIGNIFICANT WEATHER AND/OR OBSTRUCTIONS TO VISIBILITY.

AZZ001>003-036-222200-
NORTHWEST ARIZONA

CITY           SKY/WX    TMP DP  RH WIND       PRES   REMARKS
KINGMAN        PTSUNNY   61  35  37 SW23G29   29.89S
$$

AZZ004>008-015-016-018-222200-
NORTH CENTRAL ARIZONA

CITY           SKY/WX    TMP DP  RH WIND       PRES   REMARKS
WILLIAMS       PTSUNNY   48  39  71 VRB6G14   30.03F
PRESCOTT       LGT RAIN  58  36  43 S21G28    29.95R
FLAGSTAFF      NOT AVBL
PAYSON         MOSUNNY   64  25  22 S13G29    29.98F
$$

AZZ009>014-017-222200-
NORTHEAST ARIZONA

CITY           SKY/WX    TMP DP  RH WIND       PRES   REMARKS
WINSLOW        NOT AVBL
SAINT JOHNS    PTSUNNY   71  17  12 S17G25    29.91F
WINDOW ROCK    CLOUDY    65  21  18 S13G23    29.97F
$$

AZZ023-222200-
GREATER PHOENIX AREA

CITY           SKY/WX    TMP DP  RH WIND       PRES   REMARKS
PHOENIX        MOSUNNY   80  40  23 W15G21    29.85F
BUCKEYE        SUNNY     75  36  23 SW13G23   29.89S
GLENDALE       MOSUNNY   79  39  24 S14G22    29.89S
LUKE AFB       SUNNY     77  40  26 SW16G23   29.86F
DEER VALLEY    MOSUNNY   76  40  27 SW14G30   29.86F
SCOTTSDALE     MOSUNNY   78  37  22 W15G22    29.88F
MESA-FALCON    MOSUNNY   79  36  21 S16       29.86F
MESA-GATEWAY   MOSUNNY   75  39  27 W17       29.88F
CHANDLER       MOSUNNY   79  41  25 SW16G29   29.86F
$$

AZZ027-028-222200-
SOUTHWEST MARICOPA COUNTY AND PINAL COUNTY

CITY           SKY/WX    TMP DP  RH WIND       PRES   REMARKS
CASA GRANDE    MOSUNNY   79  39  24 SW18G25   29.86S
GILA BEND      FAIR      77  37  23 W15G24    29.88F
$$

AZZ503-504-507>509-222200-
SOUTHEAST ARIZONA

CITY           SKY/WX    TMP DP  RH WIND       PRES   REMARKS
TUCSON         SUNNY     82  19   9 SW15G25   29.92S
DAVIS-MONTHAN  SUNNY     81  18   9 SW14G25   29.89S
RYAN FIELD       N/A     82  27  13 SW26G35   29.91F
NOGALES        MOSUNNY   77  24  14 SW20G31   29.97F
SIERRA VISTA   MOSUNNY   75  19  12 W21G26    29.99S
SAFFORD        SUNNY     85  14   7 S23       29.83F
$$

AZZ020-021-025-026-031-222200-
SOUTHWEST ARIZONA

CITY           SKY/WX    TMP DP  RH WIND       PRES   REMARKS
YUMA           MOSUNNY   80  39  23 W15G22    29.91S
$$

CAZ031-033-041-043-047-048-061-222200-
SOUTHERN CALIFORNIA

CITY           SKY/WX    TMP DP  RH WIND       PRES   REMARKS
DOWNTOWN L.A.  PTSUNNY   67  51  56 VRB3      30.01F
L.A. AIRPORT   PTSUNNY   63  52  67 W12G21    30.03F
SAN DIEGO      PTSUNNY   68  49  50 W13       30.06F
BURBANK        CLOUDY    66  46  48 SW12      30.00F
ONTARIO        CLOUDY    62  45  53 VRB6      30.02S
RIVERSIDE      CLOUDY    63  45  51 SW6       30.02F
PALM SPRINGS   MOSUNNY   78  40  25 NW13G24   29.89F
EL CENTRO NAS  MOSUNNY   77  40  26 SW26G32   29.92F
IMPERIAL       PTSUNNY   78  42  27 W26G36    29.89F
BLYTHE         MOSUNNY   80  40  23 SW14G22   29.84F
$$

NVZ020-UTZ003-222200-
SOUTHERN NEVADA-UTAH

CITY           SKY/WX    TMP DP  RH WIND       PRES   REMARKS
LAS VEGAS      NOT AVBL
SALT LAKE CITY CLOUDY    63  42  46 NW13      29.88S
$$

NMZ009-TXZ055-222200-
NEW MEXICO-WEST TEXAS

CITY           SKY/WX    TMP DP  RH WIND       PRES   REMARKS
ALBUQUERQUE    MOSUNNY   73  31  21 S20G30    30.00F
EL PASO        MOSUNNY   88  25  10 SW18G26   29.94F
$$


........................KEY........................
SKY/WX - SKY CONDITION/WEATHER
TMP    - TEMPERATURE IN FAHRENHEIT
DP     - DEW POINT IN FAHRENHEIT
RH     - RELATIVE HUMIDITY IN PERCENT
WIND   - DIRECTION AND SPEED IN MILES PER HOUR (MPH)
VRB    - VARIABLE WIND DIRECTION
PRES   - MEAN SEA LEVEL PRESSURE IN INCHES OF MERCURY
         F - FALLING PRESSURE   R - RISING PRESSURE
         S - STEADY PRESSURE
VSB    - VISIBILITY IN MILES
HX     - HEAT INDEX IN FAHRENHEIT
WCI    - WIND CHILL INDEX IN FAHRENHEIT
TC     - TEMPERATURE IN CELSIUS WHICH IS ALSO KNOWN AS
         TEMPERATURE IN CENTIGRADE
AFB    - AIR FORCE BASE
         LUKE AFB IS LUKE AIR FORCE BASE
         DAVIS-MONTHAN IS DAVIS-MONTHAN AIR FORCE BASE
NAS    - NAVAL AIR STATION
         EL CENTRO NAS IS EL CENTRO NAVAL AIR STATION
N/A    - NOT AVAILABLE




USA.gov is the U.S. government's official web portal to all federal, state and local government web resources and services.